SXM-7 (47240 NORAD) Tracking and Keplerian Element Data
This shows tracking and keplerian element data for the satellite.
Feedback or suggestion? Click here.
Element | Value |
Catalog | 47240 |
Name | SXM-7 |
Epoch Orbit | 53 |
Epoch Day | 20.74305625 |
Epoch Year | 2021 |
RAAN | 24.9726 |
Inclination | 0.0096 |
Eccentricity | 0.0002329 |
Argument of Perigee | 0.9642 |
Mean Anonmoly | 241.3988 |
Mean Motion | 1.0027181 |
Decay Rate | 1.8E-07 |
L1 | 1 47240U 20096A 21020.74305625 .00000018 00000-0 00000-0 0 9990 |
L2 | 2 47240 0.0096 24.9726 0002329 0.9642 241.3988 1.00271810 534 |
Live tracking and technical data element details for SXM-7 (NORAD 47240). SXM-7 can be tracked NOW for your location showing map with azimuth and elevation plus other details from your city location.
Track the satellite on the map from your city or location and see movement details for azimuth, elevation, latitude, longitude, range, height, and movement on the map or in text.
IsCatalogInMostPopularTable: catalog: 47240, numindb: 11
Update: records affected: 1
GetName: 47240 SXM-7
Hit Count: updated at: Sat, 23 Jan 2021 18:13:26 GMT